contact:dominique.lefevre@mio.osupytheas.fr, maurice.libes@osupytheas.fr, didier.mallarino@osupytheas.fr
Project:EMSO http://www.emso-fr.org/EMSO-France
Depth: 2436.0 m
Title:EMSO Ligure Ouest : Data MII capteur AQUADOPP
Date,Latitude,Longitude,X_East,Y_North,Z_Up,Amplitude_X,Amplitude_Y,Amplitude_Z,Batterie,SoundSpeed,Heading,Pitch,Roll,Pressure,TIS,Speed,Direction
, degrees North, degrees East, m.s-1, m.s-1,m.s-1, 1, 1, 1, Volt, m.s-1, degree, degree, degree, dbar, degree_C, m.s-1, degree
2021-06-08T00:04:03,42.805,6.029,-0.016,0.004,-0.003,102.0,102.0,101.0,13.3,1505.2,329.5,-0.7,1.8,2470.443,13.29,0.016,284.0
2021-06-08T00:07:03,42.805,6.029,-0.032,-0.009,0.014,101.0,102.0,100.0,13.4,1505.2,327.8,-0.7,1.8,2470.46,13.29,0.033,254.3
2021-06-08T00:10:03,42.805,6.029,0.008,-0.003,0.023,101.0,102.0,100.0,13.4,1505.2,329.2,-0.8,1.8,2470.437,13.29,0.008,110.6
2021-06-08T00:13:03,42.805,6.029,-0.024,0.0,0.003,101.0,101.0,101.0,13.4,1505.2,327.5,-0.8,1.8,2470.42,13.29,0.024,270.0
2021-06-08T00:16:03,42.805,6.029,-0.036,-0.001,0.012,101.0,102.0,100.0,13.4,1505.2,324.2,-0.8,1.8,2470.418,13.29,0.036,268.4
2021-06-08T00:19:03,42.805,6.029,-0.012,-0.023,-0.03,101.0,102.0,101.0,13.4,1505.2,328.1,-0.7,1.8,2470.391,13.29,0.025,207.6
2021-06-08T00:22:03,42.805,6.029,-0.015,-0.01,0.003,102.0,100.0,100.0,13.4,1505.2,328.2,-0.8,1.8,2470.446,13.29,0.018,236.3
2021-06-08T00:25:03,42.805,6.029,-0.011,0.0,0.028,101.0,101.0,101.0,13.4,1505.2,329.0,-0.7,1.8,2470.43,13.29,0.011,270.0
2021-06-08T00:28:03,42.805,6.029,-0.016,-0.017,-0.004,102.0,104.0,100.0,13.4,1505.2,325.0,-0.8,1.8,2470.452,13.29,0.023,223.3
2021-06-08T00:31:03,42.805,6.029,0.009,-0.019,0.03,100.0,102.0,100.0,13.3,1505.2,326.3,-0.7,1.8,2470.411,13.29,0.021,154.7
2021-06-08T00:34:03,42.805,6.029,-0.007,-0.022,0.0,101.0,102.0,101.0,13.4,1505.2,324.1,-0.8,1.8,2470.378,13.29,0.023,197.6
2021-06-08T00:37:03,42.805,6.029,-0.019,0.024,0.047,101.0,102.0,100.0,13.3,1505.2,328.9,-0.7,1.8,2470.389,13.29,0.03,321.6
2021-06-08T00:40:03,42.805,6.029,-0.015,-0.005,0.019,102.0,101.0,101.0,13.3,1505.2,324.3,-0.7,1.8,2470.368,13.29,0.015,251.6
2021-06-08T00:43:03,42.805,6.029,-0.004,-0.027,0.026,102.0,102.0,101.0,13.4,1505.2,328.7,-0.7,1.8,2470.348,13.29,0.027,188.4
2021-06-08T00:46:03,42.805,6.029,-0.002,-0.012,0.003,102.0,102.0,101.0,13.4,1505.2,326.2,-0.8,1.8,2470.315,13.29,0.012,189.5
2021-06-08T00:49:03,42.805,6.029,-0.012,-0.013,0.008,101.0,102.0,100.0,13.4,1505.2,327.2,-0.8,1.8,2470.329,13.29,0.017,222.7
2021-06-08T00:52:03,42.805,6.029,0.008,-0.002,0.013,102.0,102.0,101.0,13.4,1505.2,328.4,-0.8,1.9,2470.352,13.29,0.008,104.0
2021-06-08T00:55:03,42.805,6.029,0.006,-0.001,0.035,101.0,102.0,102.0,13.4,1505.2,329.1,-0.7,1.8,2470.376,13.29,0.006,99.5
2021-06-08T00:58:03,42.805,6.029,-0.019,-0.022,0.005,101.0,102.0,100.0,13.3,1505.2,325.6,-0.7,1.8,2470.316,13.29,0.029,220.8
2021-06-08T01:04:03,42.805,6.029,-0.006,-0.001,0.0,101.0,103.0,101.0,13.4,1505.2,327.8,-0.7,1.8,2470.369,13.29,0.006,260.5
2021-06-08T01:07:03,42.805,6.029,-0.004,0.005,0.03,102.0,105.0,100.0,13.4,1505.2,328.5,-0.7,1.8,2470.375,13.29,0.006,321.3
2021-06-08T01:10:03,42.805,6.029,-0.017,0.001,-0.024,101.0,103.0,101.0,13.4,1505.2,330.0,-0.8,1.8,2470.362,13.29,0.017,273.4
2021-06-08T01:13:03,42.805,6.029,-0.013,0.01,0.017,102.0,101.0,100.0,13.4,1505.2,329.6,-0.7,1.8,2470.308,13.29,0.016,307.6
2021-06-08T01:16:03,42.805,6.029,0.029,0.013,0.025,101.0,102.0,101.0,13.4,1505.2,328.3,-0.7,1.8,2470.313,13.29,0.031,65.9
2021-06-08T01:19:03,42.805,6.029,-0.017,0.005,0.019,102.0,104.0,101.0,13.4,1505.2,327.7,-0.7,1.8,2470.37,13.29,0.017,286.4
2021-06-08T01:22:03,42.805,6.029,-0.007,-0.01,0.008,102.0,103.0,100.0,13.3,1505.2,324.6,-0.7,1.8,2470.364,13.29,0.012,215.0
2021-06-08T01:25:03,42.805,6.029,-0.016,-0.012,-0.003,102.0,102.0,101.0,13.4,1505.2,326.1,-0.7,1.8,2470.352,13.29,0.02,233.1
2021-06-08T01:28:03,42.805,6.029,-0.01,0.028,0.045,102.0,102.0,101.0,13.4,1505.2,325.4,-0.7,1.8,2470.316,13.29,0.029,340.4
2021-06-08T01:31:03,42.805,6.029,0.002,-0.006,0.007,102.0,102.0,101.0,13.4,1505.2,328.2,-0.7,1.8,2470.346,13.29,0.006,161.6
2021-06-08T01:34:03,42.805,6.029,-0.004,-0.009,-0.003,100.0,104.0,101.0,13.3,1505.2,329.8,-0.8,1.8,2470.352,13.29,0.009,204.0
2021-06-08T01:37:03,42.805,6.029,-0.003,-0.007,0.013,102.0,103.0,100.0,13.3,1505.2,327.1,-0.7,1.8,2470.315,13.29,0.007,203.2
2021-06-08T01:40:03,42.805,6.029,-0.002,-0.008,-0.012,102.0,104.0,102.0,13.3,1505.2,329.6,-0.8,1.8,2470.333,13.29,0.008,194.0
2021-06-08T01:43:03,42.805,6.029,0.008,-0.012,0.012,103.0,103.0,101.0,13.4,1505.2,327.9,-0.7,1.8,2470.325,13.29,0.014,146.3
2021-06-08T01:46:03,42.805,6.029,-0.016,-0.023,0.012,102.0,101.0,100.0,13.4,1505.2,330.2,-0.7,1.8,2470.305,13.29,0.028,214.8
2021-06-08T01:49:03,42.805,6.029,-0.007,-0.014,0.019,103.0,103.0,101.0,13.4,1505.2,325.3,-0.7,1.8,2470.327,13.29,0.015,206.6
2021-06-08T01:52:03,42.805,6.029,-0.016,0.003,0.024,102.0,100.0,101.0,13.3,1505.2,327.9,-0.7,1.8,2470.327,13.29,0.016,280.6
2021-06-08T01:55:03,42.805,6.029,0.0,-0.017,0.0,101.0,101.0,100.0,13.4,1505.2,325.9,-0.7,1.8,2470.273,13.29,0.017,180.0
2021-06-08T01:58:03,42.805,6.029,-0.025,-0.013,-0.019,101.0,101.0,100.0,13.4,1505.2,327.7,-0.8,1.9,2470.27,13.29,0.028,242.5
2021-06-08T02:04:03,42.805,6.029,-0.013,-0.009,0.0,102.0,101.0,100.0,13.4,1505.2,329.2,-0.7,1.8,2470.317,13.28,0.015,235.3
2021-06-08T02:07:03,42.805,6.029,-0.007,0.011,-0.02,102.0,102.0,100.0,13.4,1505.2,327.8,-0.7,1.8,2470.308,13.28,0.013,327.5
2021-06-08T02:10:03,42.805,6.029,-0.002,-0.019,0.002,101.0,102.0,100.0,13.4,1505.2,327.4,-0.7,1.8,2470.282,13.28,0.019,186.0
2021-06-08T02:13:03,42.805,6.029,-0.022,-0.012,0.003,102.0,102.0,101.0,13.4,1505.2,326.5,-0.8,1.8,2470.266,13.28,0.025,241.4
2021-06-08T02:16:03,42.805,6.029,-0.02,0.001,-0.019,101.0,102.0,100.0,13.4,1505.2,329.7,-0.7,1.8,2470.232,13.28,0.02,272.9
2021-06-08T02:19:03,42.805,6.029,0.007,-0.012,0.008,102.0,101.0,102.0,13.4,1505.2,326.3,-0.8,1.8,2470.277,13.28,0.013,149.7
2021-06-08T02:22:03,42.805,6.029,0.01,-0.022,0.0,101.0,103.0,101.0,13.3,1505.2,329.6,-0.8,1.8,2470.22,13.28,0.024,155.6
2021-06-08T02:25:03,42.805,6.029,0.015,-0.022,0.012,103.0,102.0,100.0,13.4,1505.2,325.1,-0.8,1.8,2470.268,13.29,0.026,145.7
2021-06-08T02:28:03,42.805,6.029,-0.023,-0.008,-0.004,101.0,103.0,101.0,13.4,1505.2,326.1,-0.8,1.8,2470.223,13.28,0.024,250.8
2021-06-08T02:31:03,42.805,6.029,-0.014,-0.016,0.017,102.0,102.0,100.0,13.4,1505.2,329.6,-0.8,1.8,2470.252,13.28,0.021,221.2
2021-06-08T02:34:03,42.805,6.029,0.002,-0.027,0.01,101.0,102.0,100.0,13.4,1505.2,327.7,-0.7,1.8,2470.217,13.29,0.027,175.8
2021-06-08T02:37:03,42.805,6.029,-0.004,-0.027,-0.013,101.0,101.0,100.0,13.3,1505.2,327.7,-0.7,1.8,2470.188,13.29,0.027,188.4
2021-06-08T02:40:03,42.805,6.029,0.001,-0.009,0.024,101.0,102.0,100.0,13.3,1505.2,325.9,-0.8,1.9,2470.23,13.28,0.009,173.7
2021-06-08T02:43:03,42.805,6.029,-0.007,-0.008,0.034,101.0,101.0,100.0,13.4,1505.2,328.2,-0.8,1.8,2470.208,13.29,0.01,221.2
2021-06-08T02:46:03,42.805,6.029,-0.007,-0.013,0.029,101.0,106.0,101.0,13.4,1505.2,328.9,-0.8,1.8,2470.218,13.29,0.014,208.3
2021-06-08T02:49:03,42.805,6.029,0.015,-0.004,0.028,102.0,102.0,102.0,13.3,1505.2,324.9,-0.8,1.8,2470.178,13.29,0.015,104.9
2021-06-08T02:52:03,42.805,6.029,-0.008,-0.008,0.011,104.0,117.0,100.0,13.4,1505.2,326.8,-0.7,1.8,2470.194,13.29,0.011,225.0
2021-06-08T02:55:03,42.805,6.029,0.007,-0.011,0.002,102.0,103.0,102.0,13.4,1505.2,324.8,-0.8,1.8,2470.184,13.29,0.013,147.5
2021-06-08T02:58:03,42.805,6.029,-0.006,0.001,0.004,103.0,103.0,102.0,13.3,1505.2,328.0,-0.8,1.8,2470.161,13.29,0.006,279.5
2021-06-08T03:04:03,42.805,6.029,-0.003,-0.002,0.025,102.0,104.0,102.0,13.3,1505.2,324.9,-0.8,1.8,2470.354,13.28,0.003,236.3
2021-06-08T03:07:03,42.805,6.029,0.011,0.018,0.02,102.0,104.0,101.0,13.3,1505.2,325.9,-0.8,1.8,2470.708,13.28,0.021,31.4
2021-06-08T03:10:03,42.805,6.029,0.018,-0.021,-0.008,102.0,103.0,101.0,13.4,1505.2,329.3,-0.7,1.8,2470.224,13.28,0.027,139.4
2021-06-08T03:13:03,42.805,6.029,-0.007,-0.025,-0.018,103.0,104.0,102.0,13.4,1505.2,327.6,-0.8,1.8,2470.131,13.28,0.025,195.6
2021-06-08T03:16:03,42.805,6.029,0.017,-0.02,0.024,101.0,104.0,102.0,13.3,1505.2,329.5,-0.8,1.8,2470.132,13.28,0.026,139.6
2021-06-08T03:19:03,42.805,6.029,0.014,0.001,0.001,102.0,103.0,101.0,13.4,1505.2,325.3,-0.7,1.8,2470.157,13.28,0.014,85.9
2021-06-08T03:22:03,42.805,6.029,0.0,0.009,0.003,103.0,105.0,101.0,13.3,1505.2,329.5,-0.7,1.9,2470.186,13.28,0.009,0.0
2021-06-08T03:25:03,42.805,6.029,0.0,-0.001,0.001,103.0,108.0,101.0,13.3,1505.2,324.3,-0.8,1.8,2470.229,13.28,0.001,180.0
2021-06-08T03:28:03,42.805,6.029,0.013,-0.003,0.004,103.0,104.0,100.0,13.4,1505.2,326.3,-0.7,1.8,2470.206,13.28,0.013,103.0
2021-06-08T03:31:03,42.805,6.029,0.016,-0.018,0.009,103.0,104.0,102.0,13.4,1505.2,330.0,-0.7,1.8,2470.252,13.28,0.024,138.4
2021-06-08T03:34:03,42.805,6.029,0.019,-0.008,0.033,102.0,104.0,103.0,13.4,1505.2,330.2,-0.8,1.8,2470.271,13.28,0.02,112.8
2021-06-08T03:37:03,42.805,6.029,0.001,-0.008,-0.015,103.0,103.0,102.0,13.4,1505.2,327.1,-0.7,1.8,2470.249,13.28,0.008,172.9
2021-06-08T03:40:03,42.805,6.029,-0.028,-0.017,-0.008,103.0,103.0,101.0,13.4,1505.2,324.4,-0.8,1.9,2470.289,13.28,0.032,238.7
2021-06-08T03:43:03,42.805,6.029,0.008,-0.015,-0.012,103.0,104.0,102.0,13.4,1505.2,329.5,-0.7,1.8,2470.303,13.28,0.017,151.9
2021-06-08T03:46:03,42.805,6.029,0.014,-0.002,-0.023,104.0,104.0,102.0,13.4,1505.2,327.1,-0.7,1.8,2470.316,13.28,0.014,98.1
2021-06-08T03:49:03,42.805,6.029,0.01,-0.018,-0.007,103.0,103.0,101.0,13.4,1505.2,326.8,-0.8,1.8,2470.368,13.28,0.02,150.9
2021-06-08T03:52:03,42.805,6.029,0.016,-0.024,0.027,102.0,103.0,103.0,13.4,1505.2,329.9,-0.8,1.9,2470.329,13.28,0.028,146.3
2021-06-08T03:55:03,42.805,6.029,0.011,-0.002,-0.007,104.0,105.0,100.0,13.4,1505.2,325.6,-0.8,1.8,2470.383,13.28,0.011,100.3
2021-06-08T03:58:03,42.805,6.029,0.014,-0.002,0.016,103.0,103.0,102.0,13.4,1505.2,325.4,-0.8,1.8,2470.367,13.28,0.014,98.1
2021-06-08T04:04:03,42.805,6.029,0.015,-0.02,-0.002,103.0,104.0,101.0,13.4,1505.2,329.0,-0.7,1.8,2470.409,13.28,0.025,143.1
2021-06-08T04:07:03,42.805,6.029,-0.008,0.009,0.034,104.0,103.0,101.0,13.3,1505.2,328.5,-0.8,1.8,2470.424,13.28,0.012,318.4
2021-06-08T04:10:03,42.805,6.029,0.021,-0.002,0.02,104.0,103.0,101.0,13.4,1505.2,327.6,-0.8,1.9,2470.375,13.28,0.021,95.4
2021-06-08T04:13:03,42.805,6.029,0.016,0.013,0.009,103.0,102.0,102.0,13.3,1505.2,326.0,-0.8,1.8,2470.39,13.28,0.02,50.9
2021-06-08T04:16:03,42.805,6.029,0.009,-0.021,0.012,103.0,103.0,101.0,13.4,1505.2,324.5,-0.8,1.8,2470.423,13.28,0.022,156.8
2021-06-08T04:19:03,42.805,6.029,0.008,-0.019,0.01,103.0,103.0,101.0,13.3,1505.2,328.8,-0.8,1.8,2470.385,13.28,0.02,157.2
2021-06-08T04:22:03,42.805,6.029,0.01,-0.012,0.022,103.0,103.0,103.0,13.4,1505.2,329.7,-0.8,1.8,2470.388,13.28,0.015,140.2
2021-06-08T04:25:03,42.805,6.029,0.015,-0.021,-0.001,103.0,103.0,102.0,13.4,1505.2,328.1,-0.7,1.8,2470.378,13.28,0.025,144.5
2021-06-08T04:28:03,42.805,6.029,0.017,-0.008,-0.011,103.0,104.0,102.0,13.4,1505.2,328.0,-0.8,1.9,2470.419,13.28,0.018,115.2
2021-06-08T04:31:03,42.805,6.029,0.011,-0.011,0.012,102.0,102.0,102.0,13.4,1505.2,328.3,-0.8,1.8,2470.41,13.28,0.015,135.0
2021-06-08T04:34:03,42.805,6.029,0.02,-0.014,-0.016,103.0,103.0,102.0,13.4,1505.2,327.1,-0.8,1.8,2470.416,13.28,0.024,125.0
2021-06-08T04:37:03,42.805,6.029,0.0,-0.018,0.02,103.0,103.0,102.0,13.3,1505.2,330.0,-0.8,1.8,2470.425,13.28,0.018,180.0
2021-06-08T04:40:03,42.805,6.029,0.016,-0.014,-0.007,103.0,104.0,104.0,13.3,1505.2,326.5,-0.8,1.8,2470.431,13.28,0.021,131.2
2021-06-08T04:43:03,42.805,6.029,-0.015,-0.015,-0.007,103.0,104.0,101.0,13.4,1505.2,324.7,-0.8,1.8,2470.4,13.28,0.021,225.0
2021-06-08T04:46:03,42.805,6.029,0.001,-0.017,0.005,103.0,103.0,102.0,13.4,1505.2,326.3,-0.8,1.8,2470.49,13.28,0.017,176.6
2021-06-08T04:49:03,42.805,6.029,0.024,-0.003,0.028,103.0,103.0,101.0,13.4,1505.2,324.5,-0.8,1.8,2470.441,13.28,0.024,97.1
2021-06-08T04:52:03,42.805,6.029,-0.013,-0.018,-0.027,104.0,107.0,101.0,13.3,1505.2,326.5,-0.7,1.8,2470.406,13.28,0.022,215.8
2021-06-08T04:55:03,42.805,6.029,-0.006,0.0,-0.009,103.0,104.0,103.0,13.3,1505.2,329.4,-0.7,1.9,2470.47,13.28,0.006,270.0
2021-06-08T04:58:03,42.805,6.029,0.0,-0.016,0.019,103.0,105.0,101.0,13.4,1505.2,329.6,-0.8,1.8,2470.459,13.28,0.016,180.0
2021-06-08T05:04:03,42.805,6.029,0.006,0.0,0.021,104.0,104.0,101.0,13.4,1505.2,326.9,-0.8,1.8,2470.479,13.28,0.006,90.0
2021-06-08T05:07:03,42.805,6.029,-0.011,-0.013,0.013,103.0,105.0,101.0,13.4,1505.2,329.6,-0.8,1.8,2470.398,13.28,0.017,220.2
2021-06-08T05:10:03,42.805,6.029,0.019,-0.001,0.037,103.0,105.0,102.0,13.4,1505.2,326.3,-0.7,1.8,2470.418,13.28,0.019,93.0
2021-06-08T05:13:03,42.805,6.029,-0.008,-0.002,0.009,102.0,102.0,102.0,13.4,1505.2,329.0,-0.7,1.8,2470.416,13.28,0.008,256.0
2021-06-08T05:16:03,42.805,6.029,-0.013,0.002,-0.007,103.0,103.0,101.0,13.3,1505.2,327.7,-0.8,1.8,2470.422,13.28,0.013,278.7
2021-06-08T05:19:03,42.805,6.029,-0.008,-0.008,0.009,104.0,104.0,101.0,13.3,1505.2,328.4,-0.8,1.8,2470.45,13.29,0.011,225.0
2021-06-08T05:22:03,42.805,6.029,0.001,-0.011,0.014,103.0,102.0,101.0,13.3,1505.2,326.4,-0.7,1.8,2470.443,13.29,0.011,174.8
2021-06-08T05:25:03,42.805,6.029,-0.004,-0.016,0.0,103.0,102.0,103.0,13.4,1505.2,329.5,-0.7,1.8,2470.376,13.29,0.016,194.0
2021-06-08T05:28:03,42.805,6.029,0.005,0.001,0.016,104.0,103.0,100.0,13.3,1505.2,327.1,-0.8,1.8,2470.427,13.29,0.005,78.7
2021-06-08T05:31:03,42.805,6.029,-0.007,-0.016,0.006,103.0,102.0,102.0,13.4,1505.2,329.3,-0.7,1.8,2470.402,13.29,0.017,203.6
2021-06-08T05:34:03,42.805,6.029,0.016,-0.006,-0.009,103.0,103.0,101.0,13.4,1505.2,324.4,-0.8,1.8,2470.416,13.29,0.017,110.6
2021-06-08T05:37:03,42.805,6.029,0.0,-0.012,-0.026,103.0,104.0,100.0,13.4,1505.2,326.0,-0.8,1.8,2470.431,13.29,0.012,180.0
2021-06-08T05:40:03,42.805,6.029,0.004,-0.01,0.007,102.0,103.0,101.0,13.4,1505.2,328.5,-0.7,1.8,2470.416,13.29,0.01,158.2
2021-06-08T05:43:03,42.805,6.029,-0.02,-0.004,0.02,102.0,104.0,100.0,13.4,1505.2,325.1,-0.8,1.9,2470.458,13.29,0.02,258.7
2021-06-08T05:46:03,42.805,6.029,-0.011,-0.001,0.026,103.0,103.0,101.0,13.4,1505.2,328.1,-0.7,1.8,2470.447,13.29,0.011,264.8
2021-06-08T05:49:03,42.805,6.029,0.0,-0.004,0.003,103.0,103.0,102.0,13.3,1505.2,326.2,-0.7,1.8,2470.428,13.29,0.004,180.0
2021-06-08T05:52:03,42.805,6.029,0.001,-0.012,0.026,103.0,104.0,101.0,13.4,1505.2,327.9,-0.7,1.8,2470.417,13.29,0.012,175.2
2021-06-08T05:55:03,42.805,6.029,-0.006,-0.011,0.025,102.0,103.0,101.0,13.4,1505.2,329.4,-0.8,1.8,2470.453,13.29,0.012,208.6
2021-06-08T05:58:03,42.805,6.029,-0.01,0.001,0.014,102.0,102.0,101.0,13.4,1505.2,328.0,-0.8,1.8,2470.474,13.29,0.01,275.7
2021-06-08T06:04:03,42.805,6.029,-0.004,-0.01,-0.001,103.0,103.0,102.0,13.3,1505.2,324.4,-0.7,1.8,2470.499,13.29,0.01,201.8
2021-06-08T06:07:03,42.805,6.029,-0.02,-0.006,-0.014,103.0,103.0,101.0,13.4,1505.2,329.6,-0.8,1.8,2470.47,13.29,0.02,253.3
2021-06-08T06:10:03,42.805,6.029,-0.015,-0.004,-0.004,103.0,103.0,102.0,13.3,1505.2,328.3,-0.8,1.9,2470.397,13.29,0.015,255.1
2021-06-08T06:13:03,42.805,6.029,-0.026,-0.012,0.005,103.0,103.0,101.0,13.4,1505.2,328.6,-0.7,1.9,2470.414,13.29,0.028,245.2
2021-06-08T06:16:03,42.805,6.029,-0.016,-0.009,0.022,103.0,105.0,100.0,13.4,1505.2,328.4,-0.7,1.8,2470.44,13.29,0.018,240.6
2021-06-08T06:19:03,42.805,6.029,-0.007,-0.023,-0.014,104.0,103.0,100.0,13.3,1505.2,324.9,-0.8,1.8,2470.399,13.29,0.024,196.9
2021-06-08T06:22:03,42.805,6.029,-0.011,-0.024,0.0,103.0,104.0,102.0,13.3,1505.2,326.0,-0.7,1.8,2470.394,13.29,0.026,204.6
2021-06-08T06:25:03,42.805,6.029,0.0,-0.005,0.026,102.0,102.0,101.0,13.4,1505.2,329.7,-0.8,1.8,2470.412,13.29,0.005,180.0
2021-06-08T06:28:03,42.805,6.029,-0.004,0.008,0.014,105.0,104.0,100.0,13.4,1505.2,324.6,-0.7,1.8,2470.378,13.29,0.008,333.4
2021-06-08T06:31:03,42.805,6.029,-0.012,-0.008,-0.03,104.0,102.0,101.0,13.4,1505.2,324.7,-0.7,1.8,2470.377,13.29,0.014,236.3
2021-06-08T06:34:03,42.805,6.029,0.005,-0.014,0.005,102.0,103.0,101.0,13.4,1505.2,328.9,-0.8,1.8,2470.423,13.29,0.014,160.4
2021-06-08T06:37:03,42.805,6.029,-0.002,0.019,-0.006,102.0,103.0,103.0,13.4,1505.2,326.3,-0.7,1.8,2470.387,13.29,0.019,354.0
2021-06-08T06:40:03,42.805,6.029,-0.001,0.007,0.006,102.0,103.0,101.0,13.4,1505.2,328.8,-0.7,1.8,2470.411,13.29,0.007,351.9
2021-06-08T06:43:03,42.805,6.029,-0.011,-0.024,0.004,103.0,102.0,103.0,13.3,1505.2,326.0,-0.8,1.8,2470.402,13.29,0.026,204.6
2021-06-08T06:46:03,42.805,6.029,0.0,0.005,0.038,103.0,103.0,102.0,13.4,1505.2,327.4,-0.8,1.8,2470.401,13.29,0.005,0.0
2021-06-08T06:49:03,42.805,6.029,-0.005,-0.007,-0.003,104.0,103.0,101.0,13.4,1505.2,327.3,-0.8,1.8,2470.397,13.29,0.008,215.5
2021-06-08T06:52:03,42.805,6.029,-0.02,-0.015,0.01,103.0,104.0,102.0,13.4,1505.2,328.0,-0.7,1.8,2470.41,13.29,0.025,233.1
2021-06-08T06:55:03,42.805,6.029,-0.012,-0.01,0.03,103.0,103.0,101.0,13.3,1505.2,324.3,-0.7,1.8,2470.39,13.29,0.015,230.2
2021-06-08T06:58:03,42.805,6.029,-0.016,-0.015,0.021,102.0,103.0,102.0,13.4,1505.2,327.2,-0.8,1.8,2470.374,13.29,0.021,226.9
2021-06-08T07:04:03,42.805,6.029,-0.015,-0.014,-0.012,102.0,104.0,101.0,13.3,1505.2,328.4,-0.7,1.8,2470.374,13.29,0.02,227.0
2021-06-08T07:07:03,42.805,6.029,-0.004,-0.018,0.022,101.0,103.0,102.0,13.4,1505.2,327.5,-0.7,1.8,2470.364,13.29,0.018,192.5
2021-06-08T07:10:03,42.805,6.029,-0.026,0.0,0.025,103.0,104.0,101.0,13.3,1505.2,328.4,-0.8,1.8,2470.379,13.29,0.026,270.0
2021-06-08T07:13:03,42.805,6.029,-0.013,-0.022,-0.028,102.0,105.0,101.0,13.4,1505.2,326.5,-0.7,1.8,2470.383,13.29,0.025,210.6
2021-06-08T07:16:03,42.805,6.029,-0.027,0.01,0.003,103.0,103.0,101.0,13.4,1505.2,324.6,-0.8,1.8,2470.417,13.29,0.028,290.3
2021-06-08T07:19:03,42.805,6.029,-0.019,-0.002,0.02,103.0,103.0,101.0,13.4,1505.2,329.3,-0.7,1.8,2470.417,13.29,0.019,264.0
2021-06-08T07:22:03,42.805,6.029,-0.021,-0.006,-0.004,102.0,102.0,101.0,13.4,1505.2,328.0,-0.7,1.8,2470.417,13.29,0.021,254.1
2021-06-08T07:25:03,42.805,6.029,-0.018,0.005,0.017,102.0,104.0,101.0,13.4,1505.2,328.4,-0.8,1.8,2470.465,13.29,0.018,285.5
2021-06-08T07:28:03,42.805,6.029,0.005,-0.003,-0.008,105.0,103.0,102.0,13.4,1505.2,326.0,-0.8,1.8,2470.431,13.29,0.005,121.0
2021-06-08T07:31:03,42.805,6.029,-0.005,-0.006,0.006,104.0,104.0,101.0,13.4,1505.2,327.1,-0.8,1.9,2470.396,13.29,0.007,219.8
2021-06-08T07:34:03,42.805,6.029,-0.012,0.005,0.014,103.0,103.0,102.0,13.3,1505.2,328.4,-0.7,1.8,2470.422,13.29,0.013,292.6
2021-06-08T07:37:03,42.805,6.029,0.001,-0.025,-0.041,104.0,103.0,102.0,13.4,1505.2,327.8,-0.7,1.8,2470.508,13.29,0.025,177.7
2021-06-08T07:40:03,42.805,6.029,-0.005,-0.015,0.006,103.0,104.0,101.0,13.4,1505.2,324.6,-0.8,1.8,2470.457,13.29,0.015,198.4
2021-06-08T07:43:03,42.805,6.029,-0.029,-0.009,0.017,103.0,103.0,101.0,13.4,1505.2,328.7,-0.8,1.8,2470.46,13.29,0.03,252.8
2021-06-08T07:46:03,42.805,6.029,-0.013,0.002,0.006,104.0,106.0,102.0,13.4,1505.2,327.9,-0.7,1.9,2470.43,13.29,0.013,278.7
2021-06-08T07:49:03,42.805,6.029,0.011,-0.001,0.039,101.0,103.0,102.0,13.4,1505.2,329.9,-0.7,1.9,2470.41,13.29,0.011,95.2
2021-06-08T07:52:03,42.805,6.029,-0.034,0.002,0.006,102.0,103.0,101.0,13.3,1505.2,326.7,-0.8,1.8,2470.431,13.29,0.034,273.4
2021-06-08T07:55:03,42.805,6.029,-0.031,0.0,-0.008,102.0,103.0,101.0,13.4,1505.2,327.5,-0.8,1.8,2470.459,13.29,0.03,270.0
2021-06-08T07:58:03,42.805,6.029,-0.007,0.01,0.012,103.0,103.0,101.0,13.4,1505.2,326.8,-0.8,1.8,2470.425,13.29,0.012,325.0
2021-06-08T08:04:03,42.805,6.029,-0.033,0.014,-0.015,103.0,102.0,101.0,13.4,1505.2,330.0,-0.8,1.8,2470.491,13.29,0.035,293.0
2021-06-08T08:07:03,42.805,6.029,-0.002,-0.007,0.03,103.0,103.0,100.0,13.3,1505.2,327.7,-0.8,1.8,2470.482,13.29,0.007,195.9
2021-06-08T08:10:03,42.805,6.029,-0.013,-0.02,0.016,103.0,105.0,102.0,13.4,1505.2,327.7,-0.8,1.8,2470.462,13.29,0.023,213.0
2021-06-08T08:13:03,42.805,6.029,-0.016,0.0,-0.023,102.0,103.0,101.0,13.3,1505.2,327.8,-0.7,1.8,2470.452,13.29,0.016,270.0
2021-06-08T08:16:03,42.805,6.029,-0.007,-0.019,-0.012,102.0,102.0,102.0,13.3,1505.2,326.7,-0.8,1.8,2470.456,13.29,0.02,200.2
2021-06-08T08:19:03,42.805,6.029,0.028,-0.018,0.028,101.0,104.0,102.0,13.3,1505.2,328.5,-0.7,1.9,2470.453,13.29,0.033,122.7
2021-06-08T08:22:03,42.805,6.029,-0.022,0.001,0.009,104.0,103.0,101.0,13.4,1505.2,328.2,-0.7,1.8,2470.447,13.29,0.022,272.6
2021-06-08T08:25:03,42.805,6.029,-0.012,-0.006,-0.018,103.0,102.0,101.0,13.4,1505.2,329.7,-0.8,1.8,2470.435,13.29,0.013,243.4
2021-06-08T08:28:03,42.805,6.029,-0.012,-0.012,0.022,104.0,102.0,101.0,13.3,1505.2,328.0,-0.8,1.8,2470.456,13.29,0.016,225.0
2021-06-08T08:31:03,42.805,6.029,-0.012,-0.006,0.0,103.0,102.0,101.0,13.4,1505.2,326.5,-0.7,1.8,2470.404,13.29,0.013,243.4
2021-06-08T08:34:03,42.805,6.029,-0.025,0.008,0.0,103.0,101.0,101.0,13.4,1505.2,324.8,-0.7,1.8,2470.351,13.29,0.026,287.7
2021-06-08T08:37:03,42.805,6.029,-0.003,0.0,0.004,103.0,102.0,101.0,13.4,1505.2,326.0,-0.7,1.8,2470.349,13.29,0.003,270.0
2021-06-08T08:40:03,42.805,6.029,-0.016,0.004,0.005,103.0,102.0,102.0,13.4,1505.2,326.5,-0.8,1.8,2470.328,13.29,0.016,284.0
2021-06-08T08:43:03,42.805,6.029,-0.026,0.0,0.015,103.0,103.0,100.0,13.3,1505.2,327.8,-0.7,1.8,2470.346,13.29,0.026,270.0
2021-06-08T08:46:03,42.805,6.029,-0.013,-0.002,-0.001,103.0,101.0,101.0,13.4,1505.2,329.9,-0.7,1.8,2470.358,13.29,0.013,261.3
2021-06-08T08:49:03,42.805,6.029,-0.026,-0.008,0.01,104.0,102.0,101.0,13.4,1505.2,325.3,-0.7,1.8,2470.316,13.29,0.027,252.9
2021-06-08T08:52:03,42.805,6.029,0.003,-0.017,-0.009,101.0,102.0,100.0,13.4,1505.2,328.2,-0.7,1.8,2470.326,13.29,0.017,170.0
2021-06-08T08:55:03,42.805,6.029,-0.026,0.003,-0.005,102.0,102.0,101.0,13.4,1505.2,325.6,-0.8,1.8,2470.307,13.29,0.026,276.6
2021-06-08T08:58:03,42.805,6.029,-0.021,-0.004,0.007,102.0,103.0,101.0,13.3,1505.2,326.5,-0.8,1.8,2470.317,13.29,0.021,259.2
2021-06-08T09:04:03,42.805,6.029,-0.028,-0.013,-0.017,101.0,103.0,101.0,13.4,1505.2,325.9,-0.7,1.8,2470.324,13.29,0.03,245.1
2021-06-08T09:07:03,42.805,6.029,-0.031,0.003,0.004,102.0,102.0,101.0,13.3,1505.2,329.7,-0.7,1.8,2470.321,13.29,0.031,275.5
2021-06-08T09:10:03,42.805,6.029,-0.012,0.005,-0.02,102.0,104.0,101.0,13.3,1505.2,328.2,-0.8,1.8,2470.331,13.29,0.013,292.6
2021-06-08T09:13:03,42.805,6.029,-0.02,-0.002,-0.006,104.0,104.0,100.0,13.4,1505.2,327.1,-0.8,1.8,2470.351,13.29,0.02,264.3
2021-06-08T09:16:03,42.805,6.029,-0.036,0.005,0.026,103.0,103.0,101.0,13.3,1505.2,328.0,-0.7,1.8,2470.316,13.29,0.036,277.9
2021-06-08T09:19:03,42.805,6.029,-0.033,-0.006,-0.023,103.0,102.0,101.0,13.3,1505.2,329.1,-0.7,1.8,2470.36,13.29,0.033,259.7
2021-06-08T09:22:03,42.805,6.029,-0.01,-0.005,0.019,103.0,103.0,101.0,13.3,1505.2,328.2,-0.7,1.8,2470.299,13.29,0.011,243.4
2021-06-08T09:25:03,42.805,6.029,-0.022,-0.011,0.0,103.0,103.0,102.0,13.4,1505.2,326.6,-0.7,1.8,2470.325,13.29,0.024,243.4
2021-06-08T09:28:03,42.805,6.029,-0.029,0.001,0.008,104.0,102.0,101.0,13.4,1505.2,329.8,-0.8,1.8,2470.339,13.29,0.029,272.0
2021-06-08T09:31:03,42.805,6.029,-0.016,-0.015,-0.029,103.0,102.0,101.0,13.3,1505.2,324.7,-0.7,1.9,2470.283,13.29,0.021,226.9
2021-06-08T09:34:03,42.805,6.029,-0.029,0.002,0.005,103.0,103.0,101.0,13.4,1505.2,328.7,-0.7,1.8,2470.285,13.29,0.029,273.9
2021-06-08T09:37:03,42.805,6.029,-0.018,-0.007,0.007,102.0,101.0,102.0,13.3,1505.2,325.6,-0.8,1.8,2470.295,13.29,0.019,248.8
2021-06-08T09:40:03,42.805,6.029,0.003,-0.01,0.007,102.0,103.0,100.0,13.3,1505.2,326.0,-0.8,1.8,2470.316,13.29,0.01,163.3
2021-06-08T09:43:03,42.805,6.029,-0.008,-0.021,-0.01,103.0,101.0,101.0,13.4,1505.2,327.2,-0.8,1.8,2470.302,13.29,0.022,200.9
2021-06-08T09:46:03,42.805,6.029,0.005,-0.013,0.023,104.0,102.0,101.0,13.4,1505.2,330.1,-0.7,1.9,2470.256,13.29,0.013,159.0
2021-06-08T09:49:03,42.805,6.029,-0.035,-0.003,-0.003,102.0,101.0,101.0,13.4,1505.2,328.0,-0.8,1.8,2470.243,13.29,0.035,265.1
2021-06-08T09:52:03,42.805,6.029,-0.009,-0.01,0.011,103.0,102.0,100.0,13.4,1505.2,330.0,-0.8,1.8,2470.27,13.29,0.013,222.0
2021-06-08T09:55:03,42.805,6.029,-0.024,-0.015,-0.021,102.0,101.0,101.0,13.3,1505.2,328.0,-0.7,1.9,2470.253,13.29,0.028,238.0